Regional Weather Roundup
Issued by NWS

Home | Current Version | Previous Version | Text Only | Print | Product List | Glossary Off
Versions: 1 2 3 4 5 6 7 8 9 10 11 12 13 14 15 16 17 18 19 20 21 22 23 24 25 26 27 28 29 30 31 32 33 34 35 36 37 38 39 40 41 42 43 44 45 46 47 48 49 50

464
ASUS44 KLIX 272301
RWRLA
LOUISIANA WEATHER ROUNDUP
NATIONAL WEATHER SERVICE NEW ORLEANS LA
500 PM CST FRI FEB 27 2015

NOTE: "FAIR" INDICATES FEW OR NO CLOUDS BELOW 12,000 FEET WITH NO
      SIGNIFICANT WEATHER AND/OR OBSTRUCTIONS TO VISIBILITY.
      SKY/WX - SKY CONDITION AND SIGNIFICANT WEATHER.
      TMP - AIR TEMPERATURE.    DP   - DEWPOINT TEMPERATURE.
      RH  - RELATIVE HUMIDITY.  PRES - PRESSURE.
      HX  - HEAT INDEX.         WCI  - WIND CHILL INDEX.

*  THESE STATIONS ARE NOT NWS OR FAA STATIONS AND ARE NOT UNDER
   NWS QUALITY CONTROL.

LAZ040-048-061>063-065-066-069-280000-
SOUTHEAST LOUISIANA

CITY           SKY/WX    TMP DP  RH WIND       PRES   REMARKS
N.O. AUDUBON     N/A     53  38  57 MISG        N/A
N.O. INTL ARPT MOSUNNY   51  33  50 N13       30.31F
N.O. LAKEFRONT SUNNY     54  34  46 N12       30.32S
SLIDELL        SUNNY     52  32  46 N10       30.32R
BATON ROUGE    SUNNY     52  32  46 NE9       30.32S
BOOTHVILLE     PTSUNNY   50  39  66 NE7       30.31R
BELLE CHASSE   MOSUNNY   53  31  42 NE8       30.30S
BOGALUSA*        N/A     49  32  50 N8        30.37R
GALLIANO*      PTCLDY    54  34  47 NE5       30.30S
NEW ROADS*     FAIR      52  32  46 N7        30.33S
GONZALES*      NOT AVBL
HAMMOND*       NOT AVBL
HOUMA*         SUNNY     52  34  50 NE14      30.30
PORT FOURCHON* CLEAR     48  37  66 NE15      30.33R

$$

LAZ041-044-053-054-280000-
SOUTHWEST LOUISIANA

CITY           SKY/WX    TMP DP  RH WIND       PRES   REMARKS
LAKE CHARLES   SUNNY     50  33  52 E10       30.33R
LAFAYETTE      SUNNY     51  33  50 NE9       30.32R
PATTERSON      SUNNY     52  34  50 E13       30.30S
SALT POINT       N/A     54  34  46 MISG      30.28R
NEW IBERIA     SUNNY     53  35  50 N14       30.31S
CHENAULT AIRPK NOT AVBL

$$

LAZ027-028-280000-
CENTRAL LOUISIANA

CITY           SKY/WX    TMP DP  RH WIND       PRES   REMARKS
FORT POLK      MOSUNNY   47  28  48 NE10      30.33R
ALEXANDRIA INT CLOUDY    43  27  53 N14       30.37R
ALEXANDRIA     MOSUNNY   43  26  51 NE8G17    30.38R

$$

LAZ001-002-280000-
NORTHWEST LOUISIANA

CITY           SKY/WX    TMP DP  RH WIND       PRES   REMARKS
SHREVEPORT     CLOUDY    33  20  58 N9        30.45R WCI  25
BARKSDALE AFB  CLOUDY    33  20  60 N10       30.46R WCI  24
DTN SHREVEPORT CLOUDY    32  18  56 NE8       30.46R WCI  25

$$

LAZ014-016-280000-
NORTHEAST LOUISIANA

CITY           SKY/WX    TMP DP  RH WIND       PRES   REMARKS
MONROE         CLOUDY    34  23  64 NE12      30.48R WCI  25
TALLULAH       SUNNY     37  26  64 N14G22    30.45R WCI  28

$$




USA.gov is the U.S. government's official web portal to all federal, state and local government web resources and services.